GW0064 Weather Reports


Display with metric or nautical units.
time (UTC)temp
F
wind
direction
speed
MPH
gust
MPH
rain 1hr
in
rain 24hr
in
rain mn
in
humidity
%
barometer
mb
20260507023502 0 280 1.0 2.0 0.00 0.30 0.09 1015.0
20260507023003 0 280 1.0 2.0 0.00 0.30 0.09 1014.9
20260507022502 0 275 1.0 2.0 0.00 0.30 0.09 1014.9
20260507022001 0 279 1.0 2.0 0.00 0.30 0.09 1014.9
20260507021501 0 279 1.0 2.0 0.00 0.30 0.09 1014.9
20260507021002 0 279 1.0 3.0 0.00 0.30 0.09 1014.9
20260507020503 0 272 2.0 3.0 0.00 0.30 0.09 1014.9
20260507020007 0 283 2.0 3.0 0.00 0.30 0.09 1014.9
20260507015502 0 286 2.0 3.0 0.00 0.40 0.09 1014.8
20260507015004 0 285 2.0 3.0 0.00 0.40 0.09 1014.9
20260507014501 0 280 2.0 3.0 0.00 0.40 0.09 1014.9
20260507013503 0 268 1.0 3.0 0.00 0.40 0.09 1014.8
20260507012502 0 279 1.0 2.0 0.00 0.40 0.09 1014.7
20260507012004 0 280 1.0 3.0 0.00 0.40 0.09 1014.7
20260507011501 0 280 2.0 3.0 0.00 0.40 0.09 1014.7
20260507010502 0 290 2.0 6.0 0.00 0.40 0.09 1014.5
20260507010005 0 271 3.0 6.0 0.00 0.40 0.09 1014.6
20260507005502 0 289 2.0 4.0 0.00 0.48 0.09 1014.6
20260507005002 0 301 2.0 4.0 0.00 0.48 0.09 1014.5
20260507004001 0 290 3.0 4.0 0.00 0.48 0.09 1014.3
20260507003501 0 286 1.0 4.0 0.00 0.48 0.09 1014.1
20260507003002 0 293 2.0 7.0 0.00 0.48 0.09 1014.1
20260507002504 0 288 3.0 7.0 0.00 0.48 0.09 1014.0
20260507002003 0 296 3.0 6.0 0.00 0.48 0.09 1013.9
20260507001503 0 293 3.0 5.0 0.00 0.48 0.09 1013.9
20260507000502 0 295 3.0 6.0 0.00 0.48 0.09 1013.7
20260507000005 0 295 4.0 7.0 0.00 0.48 0.09 1013.7
20260506235504 0 295 4.0 8.0 0.00 0.56 0.09 1013.8
20260506234502 0 297 5.0 9.0 0.00 0.56 0.09 1013.8
20260506234002 0 302 4.0 7.0 0.00 0.56 0.09 1013.8
20260506233503 0 302 5.0 7.0 0.00 0.56 0.09 1013.8
20260506232501 0 295 4.0 7.0 0.00 0.56 0.09 1013.9
20260506232002 0 294 5.0 8.0 0.00 0.56 0.09 1013.8
20260506231502 0 297 5.0 8.0 0.00 0.56 0.09 1013.8
20260506231003 0 262 4.0 9.0 0.00 0.56 0.09 1013.9
20260506230504 0 280 6.0 9.0 0.00 0.56 0.09 1013.9
20260506230004 0 307 4.0 8.0 0.00 0.56 0.09 1013.9
20260506225502 0 295 5.0 8.0 0.00 0.61 0.09 1013.9
20260506225002 0 282 5.0 10.0 0.00 0.61 0.09 1013.9
20260506224501 0 283 6.0 10.0 0.00 0.61 0.09 1013.9
20260506224003 0 290 6.0 9.0 0.00 0.61 0.09 1013.9
20260506223002 0 301 7.0 10.0 0.00 0.61 0.09 1013.8
20260506222505 0 288 5.0 10.0 0.00 0.61 0.09 1013.9
20260506222003 0 278 5.0 13.0 0.00 0.61 0.09 1013.9
20260506221502 0 308 7.0 13.0 0.00 0.61 0.09 1013.9
20260506221002 0 284 5.0 13.0 0.00 0.61 0.09 1013.9
20260506220501 0 302 5.0 11.0 0.00 0.61 0.09 1013.9
20260506220006 0 307 7.0 11.0 0.00 0.61 0.09 1013.9
20260506215501 0 294 7.0 11.0 0.00 0.65 0.09 1013.8
20260506214501 0 300 9.0 13.0 0.00 0.65 0.09 1013.7
20260506214002 0 297 7.0 10.0 0.00 0.65 0.09 1013.7
20260506213501 0 295 5.0 13.0 0.00 0.65 0.09 1013.7
20260506213001 0 293 7.0 13.0 0.00 0.65 0.09 1013.7
20260506212003 0 267 7.0 10.0 0.00 0.65 0.09 1013.7
20260506211501 0 285 7.0 10.0 0.00 0.65 0.09 1013.7
20260506211003 0 284 5.0 13.0 0.00 0.65 0.09 1013.5
20260506210501 0 269 6.0 13.0 0.00 0.65 0.09 1013.5
20260506205503 0 273 5.0 12.0 0.00 0.67 0.09 1013.7
20260506205002 0 298 9.0 12.0 0.00 0.67 0.09 1013.6
20260506203502 0 285 6.0 10.0 0.00 0.67 0.09 1013.8
20260506203001 0 295 5.0 9.0 0.00 0.67 0.09 1013.8
20260506202501 0 283 7.0 9.0 0.00 0.67 0.09 1013.7
20260506202004 0 293 6.0 9.0 0.00 0.67 0.09 1013.7
20260506201501 0 309 6.0 9.0 0.00 0.67 0.09 1013.8
20260506201001 0 274 5.0 9.0 0.00 0.67 0.09 1013.7
20260506200502 0 289 6.0 10.0 0.00 0.67 0.09 1013.8
20260506200005 0 300 5.0 10.0 0.00 0.67 0.09 1013.8
20260506195002 0 297 6.0 10.0 0.00 0.68 0.09 1013.8
20260506194501 0 268 5.0 9.0 0.00 0.68 0.09 1013.8
20260506193504 0 286 4.0 8.0 0.00 0.68 0.09 1013.9
20260506193002 0 280 4.0 9.0 0.00 0.68 0.09 1013.9
20260506192501 0 326 6.0 10.0 0.00 0.68 0.09 1013.8
20260506192003 0 319 5.0 10.0 0.00 0.68 0.09 1013.9
20260506191502 0 310 3.0 8.0 0.00 0.68 0.09 1014.0
20260506191002 0 297 5.0 12.0 0.00 0.68 0.09 1014.0
20260506190502 0 250 6.0 12.0 0.00 0.68 0.09 1014.0
20260506190006 0 292 4.0 7.0 0.00 0.68 0.09 1013.9
20260506185503 0 285 3.0 7.0 0.00 0.74 0.09 1013.9
20260506185005 0 285 5.0 8.0 0.00 0.74 0.09 1013.9
20260506184501 0 262 5.0 8.0 0.00 0.74 0.09 1013.9
20260506184002 0 281 3.0 8.0 0.00 0.74 0.09 1013.9
20260506183504 0 206 4.0 8.0 0.00 0.74 0.09 1014.0
20260506183001 0 246 3.0 6.0 0.00 0.74 0.09 1014.0
20260506182002 0 256 3.0 7.0 0.00 0.74 0.09 1013.9
20260506181002 0 290 4.0 7.0 0.00 0.74 0.09 1013.9
20260506180505 0 289 3.0 6.0 0.00 0.74 0.09 1014.0
20260506175001 0 288 4.0 7.0 0.00 0.85 0.09 1014.0
20260506174001 0 281 4.0 6.0 0.00 0.85 0.09 1014.0
20260506173500 0 221 3.0 5.0 0.00 0.85 0.09 1014.1
20260506173001 0 240 3.0 5.0 0.00 0.85 0.09 1014.2
20260506172501 0 206 3.0 5.0 0.00 0.85 0.09 1014.2
20260506172001 0 251 1.0 5.0 0.00 0.85 0.09 1014.1
20260506171501 0 266 3.0 5.0 0.00 0.85 0.09 1014.0
20260506170502 0 318 1.0 3.0 0.00 0.85 0.09 1013.9
20260506170005 0 137 0.0 3.0 0.00 0.85 0.09 1013.8
20260506165502 0 157 2.0 3.0 0.00 0.88 0.09 1014.0
20260506165001 0 141 1.0 1.0 0.00 0.88 0.09 1013.9
20260506164500 0 278 0.0 3.0 0.00 0.88 0.09 1014.0
20260506164001 0 278 1.0 3.0 0.00 0.88 0.09 1013.8
20260506163500 0 313 1.0 4.0 0.00 0.88 0.09 1013.7
20260506163002 0 326 1.0 5.0 0.00 0.88 0.09 1013.8
20260506162502 0 328 1.0 4.0 0.00 0.88 0.09 1013.9
20260506162002 0 338 0.0 3.0 0.00 0.88 0.09 1013.7
20260506161500 0 355 1.0 2.0 0.00 0.88 0.09 1013.7
20260506161002 0 20 0.0 3.0 0.00 0.88 0.09 1013.6
20260506160500 0 24 1.0 4.0 0.00 0.88 0.09 1013.8
20260506160005 0 286 2.0 4.0 0.00 0.88 0.09 1013.9
20260506155500 0 295 1.0 4.0 0.00 0.90 0.09 1013.8
20260506155001 0 287 2.0 4.0 0.00 0.90 0.09 1013.9
20260506154501 0 348 2.0 3.0 0.00 0.90 0.09 1013.9
20260506154000 0 240 0.0 5.0 0.00 0.90 0.09 1013.8
20260506153501 0 290 1.0 5.0 0.00 0.90 0.09 1013.8
20260506153001 0 297 2.0 5.0 0.00 0.90 0.09 1013.7
20260506152503 0 240 2.0 6.0 0.00 0.90 0.09 1013.7
20260506152001 0 15 2.0 6.0 0.00 0.90 0.09 1013.5
20260506151500 0 57 2.0 5.0 0.00 0.90 0.09 1013.6
20260506151003 0 39 3.0 6.0 0.00 0.90 0.09 1013.7
20260506150005 0 284 1.0 5.0 0.00 0.90 0.09 1013.8
20260506145500 0 321 3.0 5.0 0.00 0.96 0.09 1013.7
20260506145002 0 28 2.0 5.0 0.00 0.96 0.09 1013.6
20260506144001 0 37 3.0 6.0 0.00 0.96 0.09 1013.7
20260506143500 0 312 3.0 6.0 0.00 0.96 0.09 1013.6
20260506142501 0 274 3.0 6.0 0.00 0.96 0.09 1013.4
20260506142001 0 57 1.0 5.0 0.00 0.96 0.09 1013.3
20260506141000 0 314 2.0 6.0 0.00 0.96 0.09 1013.3
20260506140501 0 285 3.0 6.0 0.00 0.96 0.09 1013.2
20260506140004 0 34 2.0 5.0 0.00 0.96 0.09 1013.3
20260506135502 0 27 2.0 4.0 0.00 0.97 0.09 1013.4
20260506135000 0 280 1.0 7.0 0.00 0.97 0.09 1013.3
20260506134500 0 293 4.0 7.0 0.00 0.97 0.09 1013.1
20260506134001 0 285 3.0 5.0 0.00 0.97 0.09 1012.8
20260506133501 0 61 2.0 5.0 0.00 0.97 0.09 1012.7
20260506133000 0 283 2.0 5.0 0.00 0.97 0.09 1012.7
20260506132501 0 287 2.0 5.0 0.00 0.97 0.09 1012.9
20260506132000 0 304 4.0 6.0 0.00 0.97 0.09 1013.1
20260506131502 0 284 3.0 6.0 0.00 0.97 0.09 1013.1
20260506131000 0 292 1.0 5.0 0.00 0.97 0.09 1013.0
20260506130004 0 285 2.0 6.0 0.00 0.97 0.09 1012.7
20260506125501 0 297 3.0 5.0 0.00 0.97 0.09 1012.7
20260506125001 0 293 2.0 5.0 0.00 0.97 0.09 1012.6
20260506124500 0 280 3.0 5.0 0.00 0.97 0.09 1012.6
20260506124001 0 286 2.0 5.0 0.00 0.97 0.09 1012.6
20260506123501 0 288 3.0 4.0 0.00 0.97 0.09 1012.5
20260506123002 0 298 3.0 4.0 0.00 0.97 0.09 1012.3
20260506122502 0 299 2.0 4.0 0.00 0.97 0.09 1012.4
20260506122000 0 287 2.0 4.0 0.00 0.97 0.09 1012.4
20260506121001 0 295 2.0 3.0 0.00 0.97 0.09 1012.1
20260506120500 0 281 2.0 3.0 0.00 0.97 0.09 1011.8
20260506120004 0 293 1.0 3.0 0.00 0.97 0.09 1011.9
20260506115501 0 284 0.0 2.0 0.00 0.97 0.09 1011.7
20260506115000 0 284 1.0 2.0 0.00 0.97 0.09 1011.7
20260506114501 0 284 0.0 2.0 0.00 0.97 0.09 1011.8
20260506114002 0 268 1.0 2.0 0.00 0.97 0.09 1011.9
20260506113500 0 274 0.0 1.0 0.00 0.97 0.09 1012.0
20260506113001 0 287 0.0 1.0 0.00 0.97 0.09 1011.8
20260506112000 0 260 0.0 0.0 0.00 0.97 0.09 1011.5
20260506111500 0 259 0.0 0.0 0.00 0.97 0.09 1011.3
20260506111000 0 259 0.0 0.0 0.00 0.97 0.09 1011.3
20260506110502 0 259 0.0 0.0 0.00 0.97 0.09 1011.2
20260506105000 0 259 0.0 0.0 0.00 0.97 0.09 1010.6
20260506104501 0 259 0.0 2.0 0.00 0.97 0.09 1010.7
20260506104000 0 275 0.0 2.0 0.00 0.97 0.09 1010.8
20260506103500 0 236 0.0 1.0 0.00 0.97 0.09 1010.8
20260506103000 0 253 0.0 2.0 0.00 0.97 0.09 1010.8
20260506102504 0 228 1.0 2.0 0.00 0.97 0.09 1010.9
20260506102000 0 210 1.0 2.0 0.00 0.97 0.09 1010.6
20260506101500 0 209 0.0 1.0 0.00 0.97 0.09 1010.5
20260506101000 0 210 0.0 1.0 0.00 0.97 0.09 1010.5
20260506100501 0 219 0.0 3.0 0.00 0.97 0.09 1010.8
20260506100004 0 262 2.0 3.0 0.00 0.97 0.09 1010.8
20260506095500 0 247 1.0 1.0 0.00 0.97 0.09 1010.5
20260506095000 0 261 0.0 1.0 0.00 0.97 0.09 1010.4
20260506094500 0 261 0.0 1.0 0.00 0.97 0.09 1010.5
20260506094001 0 231 0.0 1.0 0.00 0.97 0.09 1010.5
20260506093500 0 167 0.0 1.0 0.00 0.97 0.09 1010.4
20260506093000 0 158 0.0 1.0 0.00 0.97 0.09 1010.3
20260506091500 0 205 0.0 0.0 0.00 0.97 0.09 1009.9
20260506091000 0 205 0.0 1.0 0.00 0.97 0.09 1010.0
20260506090502 0 205 0.0 1.0 0.00 0.97 0.09 1010.1
20260506090006 0 218 0.0 1.0 0.00 0.97 0.09 1010.0
20260506085500 0 141 0.0 0.0 0.00 0.97 0.09 1009.9
20260506085000 0 141 0.0 0.0 0.00 0.97 0.09 1009.9
20260506084500 0 140 0.0 1.0 0.00 0.97 0.09 1009.9
20260506084001 0 140 1.0 1.0 0.00 0.97 0.09 1009.9
20260506082501 0 213 0.0 3.0 0.00 0.97 0.09 1010.0
20260506081501 0 203 1.0 2.0 0.00 0.97 0.09 1010.0
20260506081001 0 158 0.0 2.0 0.00 0.97 0.09 1009.9
20260506073502 0 134 0.0 1.0 0.00 1.14 0.09 1009.4
20260506073001 0 134 0.0 2.0 0.00 1.14 0.09 1009.4
20260506072001 0 134 1.0 2.0 0.00 1.14 0.09 1009.5
20260506071500 0 133 0.0 1.0 0.00 1.14 0.09 1009.8
20260506070500 0 133 0.0 1.0 0.00 1.14 0.09 1009.8
20260506062500 0 20 1.0 3.0 0.03 1.30 0.09 1 1009.5
20260506062002 0 46 1.0 2.0 0.04 1.30 0.09 1009.6
20260506061500 0 79 0.0 1.0 0.05 1.30 0.09 1009.7
20260506061000 44 79 0.0 1.0 0.05 1.30 0.09 93 1009.7
20260506060500 0 79 0.0 2.0 0.04 1.29 0.08 1009.8
20260506050959 0 57 1.0 2.0 0.02 1.34 0.04 1011.0
20260506050500 0 40 0.0 2.0 0.03 1.34 0.04 93 1011.1
20260506045003 45 41 1.0 4.0 0.05 1.33 0.03 94 1010.2
20260506044501 0 44 2.0 4.0 0.06 1.32 0.02 94 1010.1
20260506044002 0 47 2.0 4.0 0.07 1.32 0.02 94 1010.3
20260506042503 45 56 2.0 4.0 0.11 1.32 0.02 1009.9
20260506042002 0 47 1.0 2.0 0.12 1.32 0.02 1 1010.0
20260506041502 0 71 1.0 2.0 0.13 1.32 0.02 1 1009.9
20260506041003 0 70 1.0 2.0 0.14 1.32 0.02 1009.9
20260506040502 0 93 0.0 2.0 0.13 1.31 0.01 1010.0
20260506040005 45 129 0.0 1.0 0.13 1.30 0.00 1 1010.1
20260506035004 0 129 0.0 2.0 0.11 1.27 1.27 1 1010.0
20260506034004 46 74 0.0 2.0 0.09 1.25 1.25 1010.1
20260506033503 46 46 1.0 3.0 0.07 1.23 1.23 94 1010.2
20260506033002 46 40 1.0 4.0 0.06 1.22 1.22 94 1009.9
20260506032502 46 40 2.0 4.0 0.06 1.21 1.21 94 1009.9
20260506032003 46 45 1.0 3.0 0.07 1.20 1.20 94 1009.9
20260506031502 46 45 1.0 5.0 0.07 1.19 1.19 94 1009.9
20260506031002 0 39 2.0 5.0 0.07 1.18 1.18 94 1010.0
20260506030502 0 44 2.0 5.0 0.09 1.18 1.18 1 1009.7
20260506025502 46 60 1.0 6.0 0.09 1.17 1.17 1009.6
20260506025004 0 86 2.0 8.0 0.08 1.16 1.16 94 1009.5
20260506024504 0 77 4.0 7.0 0.09 1.16 1.16 1009.5
20260506024002 46 60 1.0 5.0 0.10 1.16 1.16 1009.5